sat.trackr.live / text

‹ back to catalog

STARLINK-32293

NORAD 61526 · 2024-183T

PAYLOAD ACTIVE UNKNOWN

§ Identity

Operator
Country
US
Launch date
2024-10-15
Launch site
AFETR
Launch vehicle
Mass (kg)
RCS (m²)

Purposes: comms

External: N2YO · Heavens-Above · Gunter

§ Orbital elements

Epoch: 2026-09-21T10:46:08.106816Z

Period
93.85 min
Inclination
53.1603°
Eccentricity
0.0001175
Mean motion
15.34382313 rev/d
Perigee alt
462.0 km
Apogee alt
463.6 km
Semi-major
6,840.9 km
B*
5.0866e-5
RAAN
311.0570°
Arg perigee
73.0482°
Mean anomaly
287.0649°
Rev number
10,965

§ Raw data

STARLINK-322931 61526U 24183T   26264.44870494  .00001342  00000+0  50866-4 0  99962 61526  53.1603 311.0570 0001175  73.0482 287.0649 15.34382313109655

JSON: /api/v1/satellites/61526 · /tle

For live sub-satellite position, see the globe view (requires WebGL).

§ Visibility from observer

Set your observer location to see the next 7 days of passes ≥ 10°. The values pass through the URL so the page stays shareable.

No JS? Fill the form by hand. The geolocation button needs JavaScript.